Temp
16 16 17 17 18 19 19 19 18 18 18 17 17 16 16 17 17 19 19 17 15 15 16 17 17 18 18 14 11 11 10 9 9 8 8 7 7 7 6 6 6 5 5 6 5 5 5 4 5 5 5 6 6 6 6 6 6 7 8 8 8 9 10 10 10 10 9 9 8 8 7 7 7 8 8 7 8 8 9 9 8 8 9 9 9 9
15 15 17 18 18 18 17 17 17 16 16 16 16 16 16 17 17 19 18 15 15 14 16 17 17 17 16 12 11 10 9 8 8 7 7 7 6 6 6 5 5 5 5 5 5 5 5 4 4 4 4 5 5 5 5 5 4 5 5 5 5 7 8 9 9 9 9 9 9 8 8 8 7 8 7 7 7 7 8 8 8 7 7 7 8 8
16 17 17 17 16 16 16 16 15 15 15 15 16 16 16 17 18 19 17 14 15 14 15 17 16 17 15 10 10 9 8 7 7 7 6 6 6 5 5 5 5 5 4 5 5 4 4 4 4 3 4 4 4 4 4 4 4 3 3 3 4 6 6 7 8 9 9 9 9 9 8 8 7 7 7 7 7 6 6 7 6 6 6 6 7 7
18 18 16 15 15 15 15 16 15 15 15 15 16 16 16 17 17 17 16 14 15 15 15 16 15 16 13 9 9 8 7 7 6 6 6 5 5 5 5 4 4 4 4 4 4 4 4 4 3 3 3 3 3 3 3 3 3 3 2 2 3 4 5 6 6 7 8 8 8 8 7 7 7 7 7 6 6 6 6 6 5 5 6 6 6 6
18 16 13 14 14 14 15 15 15 15 15 17 17 16 16 17 16 16 16 16 16 16 16 14 14 16 13 9 9 8 7 7 6 6 6 5 5 4 4 4 4 3 3 3 3 3 3 3 3 3 2 2 2 2 2 3 3 2 2 1 2 2 3 4 5 6 6 7 7 7 6 6 6 6 6 6 5 5 5 5 5 6 6 6 6 6
16 14 12 14 14 14 14 14 16 15 15 17 17 16 16 16 15 15 15 15 15 17 16 13 15 16 14 11 10 8 8 7 7 6 5 5 5 4 4 3 3 3 2 2 2 2 3 2 2 2 2 2 2 2 2 2 2 2 2 2 1 1 2 2 3 4 5 6 6 6 6 6 6 6 5 6 6 6 6 5 6 6 6 6 6 6
15 13 12 13 14 14 14 15 15 14 14 16 15 13 14 14 14 14 14 14 14 16 16 13 14 15 15 14 11 9 8 7 6 6 5 5 4 4 3 3 3 3 2 2 2 2 2 2 2 1 1 1 1 1 1 1 1 1 1 1 1 1 0 0 1 2 3 4 4 5 5 6 5 6 6 6 6 6 6 5 5 5 5 4 5 5
14 14 13 13 14 14 15 15 15 14 14 15 13 11 12 13 13 13 14 14 14 16 15 15 15 14 15 15 11 9 8 7 6 6 5 5 4 4 3 3 3 2 2 2 1 1 1 1 1 1 1 0 0 0 0 0 1 1 1 1 1 1 0 -0 -0 0 1 1 2 2 3 4 5 5 5 6 6 5 5 5 5 5 4 4 4 4
14 15 14 13 13 15 15 15 14 13 14 14 11 11 12 12 12 13 13 13 14 14 14 16 16 13 15 14 10 9 9 7 6 5 5 4 4 3 3 3 3 2 2 2 1 1 1 1 0 -0 -0 -0 -0 -0 -1 -0 -0 -0 0 0 0 0 -0 -0 -1 -1 -1 -0 -0 0 1 2 3 4 4 5 5 5 5 5 5 4 4 4 4 4
14 13 13 12 13 14 14 13 12 12 13 12 10 11 12 12 12 12 12 13 14 13 12 15 16 14 15 13 10 11 10 7 6 5 4 4 3 3 3 2 2 2 2 2 2 2 1 1 0 -0 -0 -1 -1 -1 -1 -1 -1 -1 -1 -1 -0 -0 -1 -1 -1 -1 -1 -1 -1 -1 -1 -1 0 1 3 4 4 4 4 5 4 4 4 4 4 4
14 10 10 11 12 12 12 12 11 11 12 11 10 12 13 13 14 13 13 13 12 12 13 15 17 16 15 13 10 9 8 6 6 5 4 4 3 3 2 2 2 2 2 2 2 2 1 1 0 0 -0 -0 -1 -1 -1 -1 -1 -1 -1 -1 -1 -1 -1 -1 -1 -1 -1 -1 -2 -2 -2 -2 -2 -1 0 1 2 3 3 3 4 4 4 4 4 4
14 11 11 11 10 10 11 12 11 9 9 10 11 13 13 14 16 14 14 13 11 12 15 16 16 16 15 13 8 5 5 5 5 4 4 3 3 2 2 2 2 1 1 1 1 1 1 1 0 0 0 -0 -0 -1 -1 -1 -1 -1 -1 -1 -2 -2 -2 -2 -2 -2 -2 -2 -2 -2 -2 -2 -2 -2 -2 -1 -0 1 2 3 3 3 3 4 3 3
16 14 12 10 9 10 11 13 13 11 10 11 13 14 13 13 14 14 14 13 12 14 15 15 14 14 13 10 6 5 4 4 4 3 3 3 2 2 2 1 1 1 1 1 1 1 1 0 0 0 -0 -0 -0 -0 -1 -1 -1 -1 -2 -2 -2 -2 -2 -2 -3 -2 -2 -2 -2 -2 -2 -2 -2 -2 -2 -2 -2 -1 -0 1 2 2 3 3 3 3
15 14 12 11 11 10 11 14 14 13 13 13 14 14 13 12 12 11 13 13 13 15 15 14 12 13 11 7 5 5 4 3 3 3 3 3 2 2 2 1 1 1 1 1 0 0 0 0 0 -0 -0 -1 -1 -1 -1 -1 -1 -1 -2 -2 -2 -2 -2 -3 -3 -3 -3 -3 -3 -2 -2 -2 -2 -2 -2 -2 -2 -2 -2 -1 -1 1 2 2 3 3
13 14 13 13 13 11 12 13 13 13 13 14 14 14 12 12 11 10 12 12 12 13 15 14 12 12 12 7 4 4 3 3 3 3 3 2 2 2 2 1 1 1 1 1 0 1 1 1 0 0 -0 -0 -1 -1 -1 -1 -2 -2 -2 -2 -2 -2 -2 -3 -3 -3 -3 -3 -3 -3 -3 -3 -3 -2 -2 -2 -2 -2 -2 -2 -2 -1 -0 1 2 2
13 14 14 13 12 12 12 13 12 11 13 13 14 13 12 13 13 12 12 12 12 11 12 13 12 10 7 5 4 4 3 3 3 3 2 2 2 2 1 1 1 0 0 1 0 1 1 1 0 0 0 -0 -1 -1 -1 -1 -2 -2 -2 -2 -2 -2 -2 -3 -3 -3 -3 -4 -3 -3 -3 -3 -3 -3 -3 -2 -2 -2 -2 -2 -2 -1 -1 -1 -0 1
12 13 14 13 12 12 12 11 11 12 13 13 13 13 13 13 13 11 11 12 12 11 10 13 13 8 4 4 4 4 3 2 2 2 2 2 1 1 1 1 1 1 0 1 1 1 1 1 1 0 -0 -0 -1 -1 -1 -2 -2 -2 -3 -3 -3 -3 -3 -3 -3 -4 -4 -4 -4 -4 -4 -4 -4 -4 -3 -3 -3 -3 -3 -2 -2 -1 -1 -1 -1 -0
11 11 13 14 13 12 10 9 10 11 12 12 12 12 12 12 12 11 10 10 10 9 10 12 13 10 8 6 3 3 3 1 1 1 1 1 1 1 1 1 1 1 1 1 1 1 1 1 1 0 -0 -0 -1 -1 -1 -2 -2 -2 -3 -3 -3 -3 -3 -3 -3 -4 -4 -4 -4 -4 -4 -4 -4 -4 -4 -4 -4 -3 -3 -3 -2 -2 -1 -1 -1 -1
12 10 12 14 13 11 10 9 11 12 11 12 11 11 11 10 10 11 10 9 9 9 10 11 11 11 9 5 2 2 1 0 1 1 0 1 1 1 1 1 1 1 1 1 1 1 1 1 1 0 -0 -1 -1 -1 -1 -2 -2 -2 -3 -3 -3 -3 -3 -4 -4 -4 -4 -4 -5 -5 -5 -5 -5 -5 -5 -5 -4 -4 -4 -3 -3 -3 -2 -2 -1 -1
11 10 10 13 13 12 12 12 12 13 12 11 10 11 11 11 10 10 10 10 9 8 8 9 10 9 5 3 2 1 0 0 -0 -0 0 0 0 1 1 1 1 1 1 1 1 1 1 1 1 0 -0 -1 -1 -1 -1 -2 -2 -2 -3 -3 -3 -4 -4 -4 -4 -4 -5 -5 -5 -5 -5 -5 -6 -6 -5 -5 -5 -5 -4 -4 -3 -3 -3 -3 -2 -2
11 10 10 12 13 13 13 13 13 13 12 12 11 10 11 11 11 10 10 10 9 8 8 7 8 7 3 2 2 -0 -0 0 -1 -0 -0 0 1 1 1 1 1 1 1 1 1 1 1 1 1 1 -1 -1 -1 -1 -1 -2 -2 -2 -3 -3 -3 -4 -4 -4 -4 -5 -5 -5 -5 -5 -6 -6 -6 -6 -6 -6 -5 -5 -5 -4 -4 -4 -4 -4 -4 -4
10 10 9 10 11 11 12 14 14 12 11 11 10 10 11 11 10 8 8 9 8 7 7 5 6 6 2 1 1 -0 -0 -0 -1 -0 -0 -0 1 1 1 1 1 1 1 1 1 1 1 1 1 1 -0 -1 -1 -1 -2 -2 -2 -2 -3 -3 -3 -4 -4 -4 -4 -5 -5 -5 -6 -6 -6 -6 -6 -6 -6 -6 -6 -6 -5 -5 -5 -5 -5 -5 -5 -5
9 8 9 9 10 11 12 13 12 10 10 10 10 10 10 9 8 6 5 7 6 6 6 5 5 4 0 -1 0 -1 -1 -0 -0 -0 -0 0 1 1 1 1 1 1 1 1 1 1 1 1 0 1 0 -1 -1 -1 -2 -2 -2 -2 -2 -3 -3 -4 -4 -4 -4 -5 -5 -6 -6 -6 -6 -6 -6 -6 -7 -6 -6 -6 -6 -6 -6 -6 -6 -6 -6 -6
8 8 9 9 10 12 12 12 11 9 10 10 10 10 8 6 6 5 5 5 4 4 5 4 5 3 -1 -1 -0 -1 -0 -0 -0 0 0 0 1 1 1 1 0 1 0 1 1 1 1 1 1 1 0 -1 -1 -1 -1 -2 -2 -2 -2 -2 -2 -3 -3 -4 -4 -4 -5 -5 -6 -6 -6 -7 -7 -7 -7 -7 -7 -7 -7 -7 -8 -8 -8 -7 -7 -6
8 9 9 8 8 9 10 10 10 9 10 9 9 9 6 4 4 4 4 4 3 4 4 3 4 2 -1 -2 -0 -0 -0 -0 -0 0 0 0 0 0 0 0 0 -0 -0 0 0 1 1 1 1 1 0 -1 -1 -1 -1 -2 -2 -2 -3 -2 -2 -3 -3 -4 -4 -4 -4 -5 -6 -6 -7 -7 -7 -7 -7 -7 -7 -8 -8 -8 -9 -9 -8 -8 -7 -7
7 8 8 7 6 6 7 7 7 8 8 7 7 7 4 2 2 2 3 3 3 3 3 2 2 1 -0 -1 -1 -1 -1 -1 -1 -0 0 0 0 -0 0 0 -0 -1 -1 -0 -0 -0 0 0 1 0 -0 -1 -1 -1 -1 -2 -2 -2 -3 -3 -3 -3 -3 -4 -4 -4 -5 -5 -6 -6 -7 -7 -7 -7 -8 -8 -8 -9 -9 -10 -10 -9 -9 -8 -7 -7
7 7 8 7 7 6 6 7 7 7 6 6 5 4 3 2 1 1 2 2 1 0 1 2 -0 -1 -0 -1 -2 -2 -1 -1 -1 -1 -0 0 -0 0 0 -0 -0 -0 -1 -1 -1 -1 -0 -0 -0 -0 -1 -1 -1 -2 -2 -2 -2 -3 -3 -3 -3 -3 -3 -4 -4 -5 -5 -6 -6 -6 -7 -7 -7 -8 -8 -9 -9 -10 -10 -10 -10 -9 -9 -8 -8 -7
6 6 6 6 6 7 6 6 7 6 6 5 4 2 2 2 1 1 0 0 -0 -1 -1 1 -1 -2 -1 -2 -3 -2 -2 -2 -1 -1 -1 -0 -0 -0 0 -0 -0 -1 -1 -1 -1 -1 -1 -1 -1 -1 -1 -2 -2 -2 -2 -3 -3 -3 -3 -3 -4 -4 -4 -4 -4 -5 -6 -6 -6 -7 -7 -7 -8 -8 -9 -10 -10 -10 -10 -10 -10 -9 -9 -9 -8 -8
5 5 5 5 5 6 6 6 6 6 6 4 2 1 1 1 0 -0 -1 -1 -1 -2 -2 -1 -1 -1 -1 -2 -3 -2 -1 -2 -1 -1 -1 -0 -1 -1 -1 -1 -1 -1 -1 -1 -1 -1 -1 -2 -1 -1 -2 -2 -2 -2 -3 -3 -3 -3 -4 -4 -4 -4 -4 -4 -5 -5 -6 -6 -6 -7 -7 -8 -9 -9 -10 -10 -11 -11 -10 -10 -10 -10 -10 -10 -9 -9
4 4 5 4 4 4 5 5 6 5 5 3 0 -0 -0 -0 -0 -0 -1 -1 -1 -2 -2 -1 -2 -1 -1 -2 -2 -2 -1 -1 -1 -1 -1 -1 -1 -1 -1 -2 -2 -2 -2 -2 -2 -2 -2 -2 -2 -2 -2 -2 -3 -3 -3 -3 -4 -4 -4 -4 -4 -4 -4 -5 -5 -5 -6 -6 -7 -7 -8 -9 -10 -10 -10 -10 -10 -10 -10 -10 -10 -10 -10 -10 -10 -10
4 4 5 4 3 4 4 5 5 5 4 1 -1 -1 -1 -1 -1 -1 -1 -1 -2 -2 -2 -2 -3 -2 -1 -1 -2 -2 -1 -1 -2 -1 -1 -2 -2 -2 -2 -2 -2 -2 -2 -2 -2 -2 -2 -2 -2 -2 -3 -3 -3 -3 -4 -4 -4 -4 -4 -4 -5 -5 -5 -5 -5 -6 -6 -7 -7 -8 -9 -9 -10 -10 -10 -10 -10 -10 -11 -11 -11 -11 -11 -11 -11 -11
3 3 3 3 2 3 4 4 4 4 3 -0 -3 -2 -2 -2 -2 -2 -2 -2 -2 -3 -3 -3 -3 -2 -1 -2 -2 -2 -2 -2 -2 -2 -2 -2 -2 -2 -2 -2 -2 -2 -3 -3 -3 -3 -3 -3 -3 -3 -3 -4 -4 -4 -4 -4 -4 -5 -5 -5 -5 -5 -6 -6 -6 -6 -7 -8 -8 -9 -9 -10 -10 -9 -9 -10 -11 -11 -11 -12 -12 -12 -12 -12 -12 -11
2 2 2 2 1 2 3 4 3 3 3 -0 -3 -3 -2 -2 -2 -3 -2 -2 -2 -2 -3 -3 -3 -2 -2 -2 -3 -2 -2 -3 -3 -2 -2 -2 -3 -3 -2 -3 -3 -3 -3 -3 -3 -3 -3 -3 -3 -3 -3 -4 -4 -4 -5 -5 -5 -5 -5 -6 -6 -6 -6 -6 -7 -7 -8 -8 -9 -9 -9 -9 -9 -9 -10 -10 -11 -12 -12 -12 -12 -13 -13 -12 -12 -12
2 2 2 2 1 1 2 3 2 2 1 -1 -2 -2 -2 -3 -3 -3 -3 -3 -2 -2 -2 -2 -2 -3 -3 -3 -3 -3 -3 -3 -3 -3 -3 -3 -3 -3 -3 -3 -4 -4 -4 -4 -3 -3 -3 -3 -3 -3 -4 -4 -5 -5 -6 -6 -6 -6 -6 -6 -6 -7 -7 -7 -8 -8 -9 -9 -9 -9 -9 -9 -9 -10 -10 -11 -12 -12 -13 -13 -13 -13 -13 -13 -13 -12
2 2 2 2 1 1 2 2 0 -1 -1 -2 -2 -2 -2 -2 -3 -3 -3 -3 -2 -2 -2 -3 -3 -3 -3 -3 -3 -3 -3 -3 -3 -3 -3 -2 -2 -3 -3 -4 -4 -4 -4 -4 -4 -4 -3 -4 -5 -5 -5 -6 -6 -6 -6 -6 -6 -7 -7 -7 -8 -8 -8 -8 -8 -9 -9 -9 -9 -9 -9 -10 -10 -11 -11 -12 -12 -13 -13 -14 -14 -14 -14 -13 -13 -13
1 1 1 1 1 1 0 -0 -1 -1 -1 -2 -2 -2 -2 -3 -3 -4 -4 -3 -3 -3 -3 -3 -4 -3 -3 -3 -3 -3 -3 -3 -3 -3 -3 -2 -3 -3 -4 -4 -4 -4 -4 -4 -5 -5 -5 -5 -6 -6 -6 -6 -6 -6 -7 -7 -7 -7 -8 -8 -9 -9 -9 -9 -9 -9 -9 -9 -9 -10 -10 -10 -11 -11 -12 -13 -13 -14 -14 -14 -14 -14 -14 -14 -13 -13
1 1 1 0 0 0 -1 -1 -1 -0 -1 -3 -4 -3 -3 -3 -3 -4 -5 -4 -3 -3 -3 -4 -4 -4 -4 -4 -4 -4 -4 -4 -5 -4 -3 -3 -3 -4 -4 -4 -4 -4 -4 -5 -6 -6 -6 -6 -6 -6 -7 -6 -7 -7 -7 -7 -8 -8 -9 -9 -9 -9 -9 -9 -9 -9 -9 -9 -10 -10 -10 -11 -12 -12 -13 -13 -14 -14 -14 -14 -14 -14 -14 -14 -14 -13
2 1 0 -0 0 0 -1 -2 -2 -2 -2 -3 -4 -3 -2 -3 -2 -3 -4 -4 -3 -3 -4 -4 -4 -4 -4 -4 -4 -4 -5 -6 -6 -5 -4 -4 -4 -4 -4 -4 -5 -5 -5 -6 -6 -7 -7 -7 -7 -7 -7 -7 -7 -7 -8 -8 -9 -9 -10 -10 -10 -10 -10 -10 -10 -10 -10 -10 -11 -11 -11 -12 -12 -13 -13 -14 -14 -14 -15 -15 -15 -15 -14 -14 -14 -13
1 1 1 -0 -0 -1 -2 -3 -3 -3 -3 -3 -4 -3 -2 -2 -2 -3 -5 -4 -3 -3 -4 -4 -5 -5 -5 -5 -5 -5 -6 -7 -7 -6 -5 -5 -5 -5 -5 -5 -5 -6 -6 -6 -7 -7 -8 -8 -8 -8 -8 -8 -9 -9 -9 -10 -10 -10 -10 -10 -11 -11 -11 -11 -11 -11 -11 -11 -11 -12 -12 -12 -13 -13 -14 -14 -15 -15 -15 -15 -15 -15 -15 -14 -14 -13
0 -0 0 -1 -2 -2 -2 -3 -3 -2 -2 -3 -4 -2 -2 -2 -2 -4 -6 -5 -3 -4 -4 -4 -5 -5 -5 -5 -6 -6 -7 -8 -7 -6 -5 -5 -5 -5 -6 -6 -6 -6 -7 -7 -7 -8 -8 -9 -9 -9 -10 -10 -10 -10 -10 -10 -11 -11 -11 -11 -12 -12 -11 -11 -12 -12 -12 -12 -12 -12 -12 -13 -13 -14 -14 -15 -15 -15 -15 -15 -15 -15 -15 -15 -14 -13
-1 -1 -1 -2 -2 -2 -3 -4 -3 -2 -2 -3 -3 -2 -2 -3 -4 -6 -7 -5 -4 -5 -4 -4 -5 -5 -5 -6 -6 -7 -7 -6 -6 -6 -5 -5 -6 -6 -6 -6 -7 -7 -7 -8 -8 -9 -9 -9 -10 -10 -10 -10 -10 -11 -11 -11 -12 -12 -12 -12 -12 -12 -12 -13 -13 -13 -13 -13 -13 -13 -13 -14 -14 -14 -15 -15 -16 -16 -16 -16 -15 -15 -15 -15 -14 -14
-3 -3 -2 -2 -3 -3 -3 -4 -4 -3 -2 -3 -3 -2 -2 -4 -6 -6 -5 -4 -4 -5 -5 -5 -5 -5 -6 -6 -6 -7 -6 -6 -6 -6 -6 -6 -7 -7 -6 -7 -7 -7 -8 -8 -9 -9 -9 -10 -10 -10 -10 -11 -11 -11 -12 -12 -12 -13 -13 -13 -13 -13 -13 -13 -13 -13 -13 -13 -13 -14 -14 -14 -15 -15 -16 -16 -16 -16 -16 -16 -16 -15 -15 -15 -14 -14
-4 -4 -3 -3 -4 -4 -4 -4 -5 -4 -2 -2 -3 -3 -4 -5 -6 -5 -4 -4 -5 -5 -5 -5 -5 -6 -6 -6 -6 -6 -7 -7 -6 -6 -6 -7 -7 -7 -7 -7 -8 -8 -8 -9 -9 -10 -10 -10 -10 -11 -11 -11 -12 -12 -12 -13 -13 -13 -13 -13 -13 -14 -14 -13 -13 -14 -14 -14 -14 -15 -15 -15 -16 -16 -16 -16 -17 -16 -16 -16 -16 -16 -15 -15 -14 -13
-4 -4 -4 -4 -4 -5 -6 -5 -5 -4 -2 -2 -3 -4 -4 -4 -5 -4 -5 -5 -5 -5 -6 -6 -6 -6 -6 -6 -7 -7 -7 -7 -7 -7 -7 -8 -7 -7 -8 -8 -8 -8 -9 -9 -10 -10 -10 -11 -11 -11 -12 -12 -12 -13 -13 -14 -14 -14 -14 -14 -14 -14 -14 -14 -14 -14 -15 -15 -15 -15 -16 -16 -16 -16 -17 -17 -17 -17 -16 -16 -16 -15 -15 -14 -14 -13
-3 -3 -4 -5 -4 -4 -5 -4 -3 -3 -2 -2 -3 -3 -4 -4 -4 -4 -5 -5 -5 -6 -6 -6 -6 -6 -6 -7 -7 -8 -8 -8 -8 -8 -8 -8 -8 -8 -8 -8 -9 -9 -9 -10 -11 -11 -11 -12 -12 -12 -12 -13 -13 -14 -14 -14 -14 -14 -14 -14 -14 -14 -14 -14 -15 -15 -15 -16 -16 -16 -16 -16 -17 -17 -17 -17 -17 -16 -16 -16 -15 -15 -15 -14 -13 -13
-3 -3 -4 -5 -4 -4 -4 -3 -3 -3 -3 -3 -3 -3 -4 -4 -4 -4 -5 -5 -6 -6 -6 -6 -7 -7 -7 -7 -8 -8 -9 -9 -8 -9 -9 -9 -9 -9 -9 -9 -9 -10 -11 -11 -11 -12 -12 -12 -13 -13 -13 -14 -14 -14 -14 -15 -15 -14 -14 -14 -14 -15 -15 -16 -16 -16 -16 -16 -16 -17 -17 -17 -17 -17 -17 -17 -16 -16 -16 -16 -15 -15 -15 -14 -14 -13
-3 -3 -4 -4 -4 -5 -5 -4 -3 -4 -4 -4 -4 -4 -4 -4 -4 -5 -5 -6 -6 -6 -6 -6 -7 -7 -7 -8 -9 -9 -9 -9 -9 -9 -10 -10 -10 -10 -10 -10 -10 -11 -11 -12 -12 -13 -13 -13 -13 -13 -14 -14 -15 -15 -15 -15 -15 -15 -15 -15 -15 -15 -16 -17 -17 -17 -17 -17 -17 -17 -17 -17 -17 -17 -17 -17 -16 -16 -16 -15 -15 -15 -15 -14 -14 -14
-4 -4 -4 -5 -5 -6 -6 -4 -4 -4 -4 -4 -5 -5 -5 -5 -5 -5 -6 -6 -6 -6 -7 -7 -7 -8 -8 -8 -9 -9 -9 -9 -10 -10 -10 -11 -11 -10 -11 -11 -11 -12 -12 -13 -13 -13 -13 -13 -14 -14 -15 -15 -15 -15 -15 -15 -15 -15 -15 -15 -16 -17 -17 -17 -18 -18 -18 -18 -17 -17 -17 -17 -17 -17 -17 -17 -17 -16 -16 -16 -15 -15 -15 -15 -15 -15
-4 -4 -4 -5 -6 -6 -5 -4 -5 -6 -6 -5 -5 -5 -5 -5 -6 -6 -7 -7 -7 -7 -7 -8 -8 -8 -8 -9 -9 -9 -10 -10 -10 -10 -11 -11 -11 -11 -11 -12 -12 -13 -13 -13 -14 -14 -14 -14 -14 -15 -15 -15 -15 -15 -15 -15 -15 -15 -16 -16 -17 -17 -18 -18 -18 -18 -18 -18 -17 -17 -17 -17 -17 -17 -17 -17 -17 -17 -16 -16 -16 -16 -16 -16 -16 -16
-4 -5 -5 -6 -6 -7 -6 -6 -6 -7 -7 -6 -6 -6 -6 -6 -6 -7 -7 -7 -8 -8 -8 -8 -8 -9 -9 -9 -9 -10 -10 -11 -11 -11 -12 -12 -12 -12 -12 -12 -13 -14 -14 -14 -14 -14 -14 -15 -15 -16 -16 -15 -16 -16 -15 -15 -16 -16 -16 -17 -17 -17 -18 -18 -19 -18 -18 -18 -17 -17 -17 -18 -18 -17 -17 -17 -17 -17 -17 -17 -16 -16 -16 -16 -16 -16
-4 -5 -5 -6 -7 -7 -6 -6 -6 -6 -7 -6 -6 -6 -6 -6 -7 -8 -8 -8 -8 -8 -8 -9 -9 -10 -10 -9 -9 -10 -11 -11 -11 -12 -12 -12 -12 -13 -13 -13 -14 -14 -14 -15 -15 -14 -15 -15 -16 -16 -16 -16 -16 -16 -15 -16 -16 -17 -17 -17 -17 -18 -18 -19 -19 -19 -18 -18 -18 -18 -18 -18 -18 -18 -18 -18 -17 -17 -17 -17 -17 -16 -16 -16 -16 -16
Height
803 805 802 798 792 786 785 787 788 787 786 789 790 790 788 784 777 768 764 769 776 779 773 766 766 762 760 772 783 786 787 791 795 797 800 801 802 803 803 804 803 803 803 802 801 799 797 794 791 789 786 783 781 779 778 776 775 774 774 774 773 773 772 772 773 775 777 778 780 783 784 784 785 787 788 790 791 791 793 795 798 800 801 801 803 807
807 807 797 790 788 788 790 792 792 793 792 792 792 790 786 782 775 763 765 773 777 781 772 763 766 762 765 780 786 788 792 796 799 801 803 804 804 806 806 806 805 805 805 804 802 800 798 796 794 791 789 786 784 782 781 779 778 777 775 775 774 773 772 771 771 773 774 775 776 778 778 780 781 782 783 784 785 787 789 791 794 796 798 800 801 803
802 798 792 792 793 794 795 795 796 796 795 794 789 788 784 777 770 763 769 777 777 780 771 762 765 761 768 785 788 792 797 801 804 804 806 807 807 808 808 809 808 807 807 805 804 802 800 799 796 794 792 790 788 786 784 782 781 779 778 777 776 775 774 772 772 772 772 773 773 774 775 777 779 779 780 782 784 785 788 790 791 793 796 800 802 802
795 791 795 798 798 798 796 794 797 796 793 791 787 786 781 774 774 772 772 776 774 775 769 766 767 762 773 789 792 796 799 802 806 807 808 809 810 811 811 812 811 810 810 808 807 805 803 802 799 798 796 793 792 789 787 786 784 783 782 780 778 776 775 774 774 773 772 773 774 775 775 776 778 779 780 783 784 785 787 789 789 791 794 797 799 799
795 795 802 802 800 800 798 795 795 795 789 783 781 782 779 776 779 777 772 771 769 764 762 770 768 756 768 785 790 798 800 801 805 806 809 811 812 813 813 814 814 814 814 812 811 809 807 805 803 801 800 797 795 793 792 790 789 787 786 784 781 779 778 776 774 773 773 773 774 774 775 776 777 778 779 781 783 783 785 786 786 787 789 791 794 795
798 802 806 802 799 800 800 796 791 793 791 781 778 780 780 781 782 781 777 775 771 758 758 771 765 750 758 772 783 793 797 801 805 806 809 811 813 814 815 815 816 817 817 816 815 814 811 809 807 806 803 801 799 797 796 794 792 791 788 786 784 781 779 778 776 774 774 774 774 774 773 774 774 775 776 777 778 779 779 780 781 782 784 786 788 791
801 804 807 803 801 800 798 795 790 795 794 784 785 788 787 788 786 784 780 780 775 760 758 769 766 756 753 758 774 788 794 800 804 806 809 811 813 815 816 818 818 818 819 819 818 817 815 813 811 809 807 806 804 802 800 797 795 793 791 789 786 784 782 780 778 777 775 775 775 775 774 773 773 773 773 773 774 775 776 777 779 780 781 783 785 787
802 802 804 803 801 798 793 791 792 798 796 788 792 797 793 790 787 784 783 781 773 762 758 757 759 763 751 748 769 783 790 798 802 806 809 811 814 816 818 819 820 820 820 820 821 819 819 817 815 813 812 810 808 805 803 800 798 795 793 791 789 787 785 784 782 780 778 777 777 776 775 775 775 774 774 774 775 775 776 776 777 778 779 781 783 785
801 800 800 803 801 796 792 794 797 799 796 791 797 800 794 791 789 785 783 779 771 768 763 747 750 761 748 750 775 780 785 797 802 806 810 812 816 817 820 821 820 821 821 821 821 821 820 819 818 817 815 814 811 808 805 803 801 798 796 794 792 790 788 786 785 783 781 781 780 778 777 776 776 775 775 775 776 776 776 776 776 777 777 777 779 782
799 802 803 806 803 796 795 798 802 801 796 796 803 799 793 791 787 785 782 776 772 773 767 747 743 751 742 751 771 769 776 794 801 807 811 813 817 818 820 822 822 822 822 821 821 821 821 820 819 818 817 816 813 810 808 806 803 800 797 795 793 792 790 788 787 785 784 782 781 780 779 778 776 775 775 775 775 776 776 776 776 776 776 776 776 777
800 808 809 808 806 802 802 802 803 805 799 800 802 792 785 780 774 777 775 773 778 774 758 740 734 741 739 747 767 774 783 795 799 806 812 814 817 820 822 823 823 824 823 823 822 821 822 820 819 818 817 816 813 810 808 806 804 802 799 796 795 794 792 790 789 787 787 785 784 782 780 779 778 776 776 775 775 775 775 776 776 776 776 776 775 774
797 805 806 808 810 809 808 802 801 808 807 805 798 786 782 771 762 768 768 773 783 767 744 735 734 737 736 747 777 796 800 802 804 809 813 816 819 822 824 825 826 826 825 824 823 822 822 821 820 818 817 815 813 811 809 808 806 803 801 799 796 795 793 792 791 789 789 788 786 784 783 781 780 778 777 776 775 774 774 774 775 775 775 775 775 774
791 797 803 810 813 811 806 797 794 801 803 800 790 783 783 777 770 770 765 766 767 750 739 741 743 742 745 766 790 801 805 807 811 814 816 819 822 823 825 826 827 826 825 824 823 822 821 820 819 817 816 815 813 812 810 808 807 805 803 801 799 798 796 794 792 790 790 789 788 786 784 782 781 779 778 777 776 775 774 773 773 773 773 773 773 773
796 796 802 806 808 810 806 797 794 794 792 790 785 784 788 787 788 785 771 761 755 743 737 745 755 750 755 784 800 799 807 812 813 817 818 820 823 824 826 826 827 827 826 825 823 822 821 819 819 817 816 815 813 811 810 808 807 806 804 803 801 800 799 797 794 792 791 790 790 788 785 783 781 779 778 777 776 775 774 773 772 771 771 771 770 770
809 800 799 800 802 807 806 801 801 799 794 788 783 787 792 789 792 791 778 768 761 751 742 748 757 748 750 784 805 805 812 814 814 818 820 821 823 824 826 826 826 827 825 824 823 821 820 819 818 817 815 814 813 811 810 809 808 807 805 803 802 801 800 798 796 793 792 791 791 789 786 783 781 780 779 777 776 775 774 772 771 769 768 768 767 768
815 804 799 802 804 805 804 800 804 805 796 786 783 788 790 784 783 782 774 768 766 763 756 747 748 760 779 800 809 810 814 815 818 821 821 823 824 824 826 826 825 826 824 823 822 820 819 818 818 817 815 814 813 811 810 809 808 808 807 805 804 802 801 798 796 795 794 793 793 790 787 783 781 780 779 777 776 775 774 772 770 768 767 766 765 765
821 808 796 801 803 801 805 803 804 804 794 786 787 786 784 780 780 782 778 769 765 769 762 741 741 773 800 806 806 811 815 819 822 824 825 825 825 826 827 826 825 824 823 822 821 819 818 817 817 816 816 814 813 812 811 810 809 808 807 806 805 803 801 799 798 797 796 796 794 791 787 784 781 780 778 777 775 774 773 771 769 768 765 764 763 762
831 819 798 797 800 801 809 810 803 799 795 791 790 786 783 782 780 782 785 779 776 775 761 743 740 752 768 789 808 814 816 824 826 826 827 826 826 828 826 826 825 823 823 822 821 820 818 816 815 816 816 814 813 812 811 810 809 808 807 806 805 803 802 801 801 800 799 797 795 791 787 784 781 780 779 777 775 773 772 770 769 767 765 763 762 761
834 829 806 795 800 802 807 810 800 791 792 793 791 790 790 792 788 784 786 785 783 777 764 753 746 743 761 792 813 818 821 829 829 828 830 828 828 828 826 825 824 822 823 821 820 820 818 816 815 815 815 814 813 812 811 810 809 808 807 805 805 804 803 803 802 801 799 797 794 790 787 784 782 781 779 777 775 773 771 770 768 767 765 763 762 760
835 837 819 799 800 802 797 798 791 784 788 791 793 792 787 790 791 786 784 783 783 780 772 764 753 759 791 810 815 825 830 831 833 832 832 830 828 827 825 825 823 822 822 820 819 819 817 816 814 814 816 814 813 812 810 810 808 807 807 805 804 803 802 801 800 799 797 795 792 790 787 785 783 781 779 777 775 772 771 769 767 766 764 762 761 759
835 837 827 805 799 801 794 790 787 786 789 789 791 791 784 783 783 782 781 777 782 784 779 778 767 772 809 823 820 831 834 832 836 835 832 832 829 827 825 824 823 821 820 819 818 818 816 816 814 813 815 813 812 812 810 809 807 806 806 804 803 802 800 799 797 796 794 792 791 789 787 785 783 781 779 776 774 772 770 769 767 765 763 761 760 758
838 836 832 817 808 803 793 787 787 791 793 793 795 791 786 784 785 793 791 780 787 792 792 800 789 785 816 830 827 834 836 835 837 834 834 833 829 828 826 824 823 821 820 818 817 817 815 814 813 812 812 812 811 810 809 808 806 805 805 803 802 801 799 798 796 794 793 791 789 788 786 785 783 781 779 776 774 772 770 768 766 764 761 759 758 756
846 843 836 825 812 801 793 788 792 798 797 797 797 792 792 796 800 812 813 803 807 805 801 805 794 797 829 838 832 838 838 837 837 834 835 833 829 829 826 824 824 821 820 818 816 816 814 812 812 810 810 810 809 809 808 806 805 803 802 801 800 800 798 797 796 794 792 790 789 787 785 784 782 780 779 776 775 772 770 768 765 762 760 758 756 754
848 841 832 823 809 796 790 788 794 801 800 797 795 796 809 818 820 825 825 822 825 815 807 808 797 808 840 842 835 841 838 836 837 834 833 832 829 829 827 825 824 821 820 818 815 814 812 811 810 808 808 809 808 808 807 805 804 801 800 798 797 796 796 795 795 793 792 790 788 786 784 782 781 779 777 775 774 771 769 767 764 761 759 756 754 752
852 839 832 831 822 810 802 798 800 802 803 804 802 806 823 833 834 833 827 825 825 815 812 815 805 815 841 843 837 839 837 837 837 833 833 832 829 829 828 826 824 822 821 818 816 813 810 809 807 806 807 807 806 805 804 804 803 800 798 796 794 793 793 793 793 791 790 789 787 785 783 781 779 777 775 774 771 769 767 765 762 760 757 755 753 751
857 846 840 843 840 833 825 820 818 814 814 817 815 820 832 841 844 842 833 829 829 825 824 825 824 829 839 841 840 840 840 840 838 835 833 831 830 829 826 824 823 822 820 818 816 812 809 808 806 805 806 805 805 804 802 802 800 798 797 794 793 792 790 790 790 789 788 787 785 784 782 780 778 776 774 772 769 767 764 762 760 758 756 754 752 749
858 850 845 845 843 839 834 829 825 824 826 826 827 833 839 845 850 849 843 840 843 846 839 833 841 844 837 841 847 845 843 841 837 834 831 828 827 825 823 822 821 820 819 816 814 811 808 807 805 805 805 804 803 802 801 800 798 797 795 792 791 790 788 788 787 786 786 784 783 781 779 778 776 774 772 770 767 765 762 760 758 756 754 752 750 748
862 857 851 849 845 840 838 834 829 829 830 830 838 846 847 849 854 854 854 853 855 859 849 838 847 850 841 847 854 847 843 842 836 834 831 827 826 823 821 821 820 819 817 815 813 810 808 806 805 804 804 802 802 800 800 799 797 796 793 790 789 787 786 785 784 783 782 781 780 778 777 775 774 772 770 767 765 763 760 758 756 754 753 750 748 746
867 862 855 856 853 845 841 837 832 831 831 835 848 855 854 855 858 860 862 860 860 866 861 851 853 851 844 850 853 846 843 841 836 834 831 828 826 824 822 821 819 818 816 814 812 809 807 806 805 804 803 801 800 798 797 797 795 794 791 789 787 785 784 783 781 780 779 777 776 775 774 773 771 769 767 764 762 760 758 756 754 752 750 748 746 743
870 864 856 860 859 850 844 839 835 833 834 845 859 862 861 863 862 862 863 860 862 866 862 856 856 850 845 848 849 844 841 838 835 833 830 827 825 823 821 820 818 816 815 813 810 808 807 806 804 803 802 800 799 797 795 794 793 791 789 787 785 784 782 781 779 778 776 775 774 772 771 770 768 766 764 762 760 758 756 754 752 749 747 745 743 740
874 868 860 864 862 853 845 839 836 836 841 856 868 866 866 868 864 864 864 862 866 867 860 859 858 849 843 845 846 843 840 838 835 832 829 827 824 822 821 818 815 813 812 810 809 808 806 805 803 802 800 798 797 796 794 792 790 788 786 785 783 782 781 779 777 775 774 773 771 770 769 767 765 763 761 759 758 756 754 752 749 746 744 741 739 737
878 875 868 867 866 857 846 841 841 839 841 859 875 873 870 871 869 870 869 866 867 867 863 862 857 848 844 846 846 843 840 839 835 832 829 826 824 822 819 816 814 812 811 809 808 807 804 802 801 799 798 796 795 794 793 790 788 786 784 782 781 780 779 777 775 773 772 771 769 768 766 764 762 760 758 757 755 753 751 749 746 744 741 738 736 734
881 882 875 870 869 860 848 845 846 841 838 856 878 880 875 874 874 873 872 868 866 866 865 861 854 850 849 848 845 841 839 838 834 831 829 825 823 821 817 814 813 812 811 810 807 805 802 800 797 795 794 792 791 791 791 789 787 785 782 781 779 778 777 776 774 771 769 768 767 765 763 761 759 757 755 754 753 751 749 746 743 741 738 735 733 731
882 882 874 870 873 867 854 848 850 850 853 865 878 879 877 877 879 878 875 869 865 863 862 856 850 850 850 848 845 842 838 837 834 831 830 826 822 818 815 815 815 812 811 808 805 803 800 797 795 793 792 790 789 789 789 787 785 783 781 779 777 776 775 774 772 769 766 764 763 761 760 758 756 754 753 752 750 748 746 744 741 738 735 733 730 728
883 881 875 872 874 868 858 857 863 864 866 873 875 875 877 877 876 876 872 866 863 860 856 854 853 852 850 846 843 842 839 836 833 831 828 824 820 818 816 815 814 812 809 806 803 801 799 797 795 793 791 790 789 787 786 784 783 781 779 778 776 774 773 771 768 765 763 760 758 757 756 755 753 752 751 749 748 746 743 741 738 736 733 731 728 726
885 883 879 877 875 872 869 872 875 869 866 873 877 874 876 876 874 874 870 864 861 858 855 857 856 852 848 846 843 842 839 835 832 829 826 822 820 819 817 814 812 810 808 805 803 801 799 798 796 794 792 790 788 786 784 782 780 779 777 775 774 773 770 768 764 761 759 757 755 754 753 752 751 750 749 747 745 743 740 738 736 733 731 728 726 723
885 884 883 882 878 877 880 878 873 866 864 876 884 879 877 878 876 876 874 864 859 859 858 858 855 851 850 848 844 841 839 835 830 825 823 822 821 819 817 814 812 809 807 805 803 801 800 798 796 794 791 788 786 784 781 780 779 777 775 774 772 770 768 765 761 758 755 754 753 752 751 750 749 747 746 745 742 740 738 735 733 731 729 726 723 721
885 884 886 886 879 877 884 883 879 875 870 877 885 880 876 877 872 873 874 864 855 858 858 855 855 853 850 847 844 841 839 837 831 823 821 821 820 818 816 813 811 809 806 805 802 800 798 796 794 791 788 786 784 782 780 778 777 775 773 772 770 768 766 763 758 755 753 751 751 750 749 747 746 745 743 741 739 737 735 732 730 728 726 724 721 718
887 885 884 886 883 883 890 892 888 882 875 879 884 877 873 873 869 871 873 860 850 854 858 856 855 853 849 847 844 841 841 839 831 823 821 821 818 817 815 812 811 809 806 805 803 800 797 795 792 790 788 786 784 782 780 778 776 774 772 770 768 766 763 759 755 753 751 750 749 748 746 745 743 741 740 738 736 734 732 729 727 725 723 721 718 716
891 890 888 891 892 889 892 893 887 878 874 878 880 874 871 870 869 872 870 856 850 855 858 856 854 851 849 847 844 842 843 839 830 822 820 819 817 816 814 812 810 808 805 803 801 799 797 794 792 790 788 786 784 781 779 776 774 772 770 768 766 763 759 756 754 752 750 748 747 745 743 742 741 739 737 735 732 731 728 726 724 722 720 718 716 714
897 896 893 893 894 893 894 895 887 876 874 878 877 872 871 870 872 876 870 860 858 859 856 855 854 851 848 847 845 843 840 835 829 823 819 817 816 814 813 812 809 807 804 801 799 798 795 793 790 789 786 784 782 780 778 775 772 770 768 765 763 760 757 755 753 751 749 746 744 743 741 740 738 736 734 732 729 727 725 723 721 719 717 716 713 711
905 904 898 897 900 899 895 895 890 878 873 875 874 871 872 876 879 877 869 863 862 859 855 854 853 850 848 846 844 841 835 831 827 822 818 816 814 812 811 809 807 805 802 799 797 796 794 790 788 786 784 783 781 778 776 774 771 768 765 763 760 758 756 753 751 749 747 744 742 741 739 737 735 733 731 729 727 725 722 720 719 717 715 713 711 709
912 910 902 900 905 905 898 896 895 885 874 873 875 872 874 879 880 874 867 863 862 859 857 855 851 849 848 844 840 837 833 828 825 820 817 815 812 810 809 807 805 803 800 797 796 794 792 788 785 783 782 781 779 776 774 772 769 766 763 760 758 756 754 751 749 747 745 743 741 739 736 734 732 730 728 726 724 722 720 718 717 715 713 711 709 707
912 913 910 907 909 912 909 900 891 883 876 876 878 876 875 877 876 871 866 863 860 859 858 854 851 849 847 843 839 835 831 827 824 820 817 813 811 809 807 805 803 800 798 796 794 792 790 786 783 782 780 779 777 775 773 770 767 764 761 759 756 754 751 749 747 745 743 742 739 737 735 732 730 728 726 724 722 720 718 716 715 713 711 709 707 705
908 909 913 912 907 907 906 895 884 880 878 877 878 876 874 873 872 870 867 863 860 860 858 854 851 848 846 844 840 835 832 828 824 820 817 813 810 808 806 803 801 798 796 795 793 791 789 786 783 781 778 776 776 774 771 769 765 762 759 757 755 752 749 747 746 744 742 740 737 735 733 730 728 726 724 722 721 719 717 715 713 711 709 708 706 704
908 907 909 910 903 898 895 888 884 883 879 877 877 876 874 871 869 867 866 863 861 860 857 854 851 847 846 844 840 836 833 829 824 820 817 814 811 809 806 802 799 797 796 794 792 790 788 786 783 779 776 775 774 772 769 767 764 761 758 755 753 751 748 747 745 742 740 738 736 733 731 728 727 725 723 721 719 717 715 714 712 710 708 707 705 703
908 908 908 906 904 903 898 888 884 884 880 878 877 874 872 871 868 867 866 863 861 858 855 853 850 847 845 843 840 836 832 828 824 821 818 815 812 808 804 801 798 797 795 793 791 789 787 784 780 778 776 774 771 769 767 764 762 760 757 754 752 750 748 746 744 741 739 736 733 731 729 727 725 723 721 720 718 716 714 713 711 709 708 706 705 703
909 908 906 904 904 904 898 887 882 882 881 879 877 873 871 870 867 867 866 863 860 857 854 852 851 847 843 840 838 835 830 826 824 821 817 814 811 806 803 800 798 796 794 792 790 787 784 782 779 777 775 772 770 768 765 763 760 758 755 753 751 749 747 745 743 740 737 735 732 729 727 725 723 721 720 718 716 715 713 711 710 709 707 706 705 703
909 906 904 904 902 898 892 886 884 882 877 876 875 872 870 868 866 865 864 862 859 856 853 851 850 847 843 840 836 833 828 825 823 821 817 813 810 806 803 800 798 796 793 791 788 785 782 780 778 776 774 771 768 766 763 761 759 757 755 753 750 748 746 744 741 739 736 733 731 728 726 724 722 720 718 717 715 713 712 710 709 708 706 705 704 703
906 906 905 905 902 896 891 889 889 885 878 873 872 870 868 867 866 863 861 859 856 854 851 848 845 844 842 839 835 832 829 825 822 820 817 813 809 806 803 800 798 795 792 789 786 783 781 779 777 775 772 769 767 765 762 760 758 756 754 752 749 747 745 743 740 738 735 733 730 728 726 724 722 720 718 716 714 712 710 709 708 706 705 703 703 702
904 904 903 905 902 896 890 888 887 885 879 872 870 869 867 866 864 862 860 857 854 852 850 847 842 839 838 836 834 832 829 824 822 819 815 812 809 806 803 801 797 793 790 788 785 781 780 778 776 774 771 768 765 763 760 758 757 755 753 751 749 747 744 742 740 737 734 732 730 728 726 724 721 719 718 715 713 712 709 707 706 704 703 702 701 700
Wind_Speed
1 5 6 7 8 8 7 7 10 13 14 14 12 11 13 13 11 14 11 2 4 4 9 10 9 10 6 6 9 8 11 12 10 10 9 9 9 9 10 11 12 12 12 16 20 22 23 25 25 22 21 22 20 21 23 25 25 23 21 18 11 14 23 29 31 33 32 29 27 25 26 27 30 33 34 35 38 41 43 44 42 41 40 39 39 40
1 7 9 8 8 7 7 8 9 11 12 12 11 10 11 11 12 14 7 3 4 2 7 8 8 9 1 8 8 8 11 10 10 9 9 9 9 9 10 12 12 11 11 15 19 22 24 26 26 25 23 24 24 22 23 25 27 27 28 30 28 18 11 24 31 31 32 35 35 32 33 34 35 36 38 38 40 42 43 44 42 40 39 38 38 40
5 7 4 3 5 6 6 6 7 9 10 9 8 9 10 8 11 11 1 4 2 3 7 9 9 8 4 9 8 10 10 9 9 9 9 9 9 10 10 11 11 12 13 15 17 21 24 26 27 26 25 25 24 23 24 25 26 27 29 31 30 28 21 10 21 29 32 34 36 37 36 33 31 32 37 38 35 35 38 38 38 37 36 36 35 37
6 2 4 6 6 7 10 7 6 9 7 8 7 8 9 8 10 8 0 2 4 6 10 10 10 7 6 10 8 10 10 10 10 10 10 9 10 10 11 11 11 13 14 15 16 19 23 25 26 27 26 26 25 25 25 26 26 25 27 31 30 27 27 22 11 13 25 30 31 31 27 23 21 20 24 29 27 29 34 36 36 37 38 40 39 38
9 4 5 6 6 7 9 8 7 7 6 7 8 8 9 10 11 11 8 8 10 11 12 9 9 6 8 9 8 8 8 10 9 10 11 9 9 10 10 11 12 13 13 15 15 17 20 23 25 27 27 26 26 26 25 25 25 24 24 27 30 29 27 26 23 17 11 18 25 27 21 17 17 15 15 19 20 23 32 37 38 41 43 44 44 43
7 4 3 6 6 5 6 7 6 4 6 8 6 5 7 10 11 12 13 11 10 8 6 7 8 4 9 11 9 9 8 9 8 9 10 9 9 9 9 10 11 12 12 14 15 16 19 22 23 25 27 27 27 26 25 24 24 25 25 25 28 30 31 30 26 23 19 11 10 19 23 21 20 19 18 21 24 26 33 39 40 44 47 46 47 46
3 1 1 4 5 5 6 7 3 1 6 7 3 4 5 8 11 11 12 9 7 8 2 6 7 5 5 10 12 12 10 10 9 9 10 9 9 9 9 9 9 10 11 11 14 16 18 20 22 23 25 26 26 26 25 25 25 26 26 26 27 27 30 33 31 26 23 20 16 10 12 19 22 22 21 26 32 29 29 33 35 38 40 41 45 46
2 3 2 2 4 6 6 4 1 1 6 5 2 4 5 8 11 11 11 8 7 10 9 9 8 8 8 7 14 15 12 11 9 9 9 9 10 10 10 10 9 10 10 9 11 13 15 18 19 20 22 23 23 24 25 25 26 26 26 27 26 25 26 29 32 31 28 25 22 20 16 11 12 15 15 19 26 25 21 25 30 34 36 38 41 44
2 4 2 2 5 5 4 3 3 4 6 3 4 4 7 9 11 11 10 9 8 9 10 10 8 7 7 6 14 13 11 10 9 9 9 9 10 10 10 10 10 10 10 10 10 11 13 15 16 16 18 19 20 22 24 24 24 25 26 27 27 26 26 27 29 30 30 29 26 23 22 18 15 14 14 13 16 18 18 21 24 26 33 38 40 43
1 1 2 2 5 4 4 3 2 5 6 4 7 8 9 10 11 10 8 8 8 7 11 13 9 8 6 6 11 9 8 8 8 8 8 9 10 10 10 11 11 10 10 10 10 12 13 14 14 14 14 16 18 19 20 22 22 24 25 27 28 27 27 27 28 28 28 29 29 28 26 22 20 18 16 14 12 12 14 19 21 21 26 33 39 44
2 3 2 1 3 4 5 5 3 6 7 6 8 10 10 11 10 8 7 5 5 8 12 15 12 11 8 4 6 3 4 7 7 7 7 8 9 10 10 10 11 10 9 9 9 11 13 14 14 14 15 16 16 18 19 20 21 22 24 26 26 26 27 27 27 27 26 26 26 26 26 25 23 21 18 16 14 13 11 13 16 19 23 27 34 40
5 2 1 1 2 2 4 5 4 4 4 4 6 8 8 9 7 6 6 4 6 8 8 7 6 9 9 1 5 6 7 8 7 7 7 8 8 9 9 9 9 8 9 9 8 9 10 12 12 13 15 15 16 18 18 18 20 20 22 24 25 26 27 27 26 26 26 24 23 22 22 22 22 22 21 18 16 15 15 14 13 15 18 20 25 30
3 1 2 2 1 2 3 6 3 3 3 3 5 7 8 8 6 6 6 5 7 9 3 2 1 5 4 3 8 9 9 8 8 8 7 8 8 7 8 8 7 8 8 8 8 7 8 10 11 12 14 14 16 18 18 18 18 19 19 21 23 23 25 26 26 26 26 24 23 22 21 20 19 20 20 19 17 16 16 16 16 15 16 17 19 22
5 2 4 2 1 2 2 8 8 4 4 6 7 7 7 7 7 8 9 8 9 10 4 3 2 3 1 6 9 10 10 9 9 8 7 7 7 7 7 8 8 8 8 7 6 6 7 9 10 11 12 13 15 17 18 18 19 19 19 20 21 21 21 23 24 25 25 24 23 22 21 20 19 19 18 17 17 17 17 17 17 18 18 19 19 19
9 4 1 1 1 3 2 5 7 8 9 9 7 6 7 7 8 9 8 9 10 11 10 5 1 4 3 5 10 10 10 9 8 8 7 7 6 6 7 8 9 9 8 7 7 7 8 10 10 11 12 12 14 16 16 17 18 20 20 21 22 21 20 21 22 23 24 24 24 23 21 21 20 19 17 16 16 17 18 18 18 19 19 20 22 22
11 7 2 2 2 3 5 3 1 6 8 5 3 5 6 6 7 9 10 13 14 12 12 10 4 2 3 7 10 9 9 9 8 8 8 7 7 6 6 8 8 7 7 8 7 7 9 11 11 11 12 13 14 15 15 15 15 17 18 20 21 21 20 20 21 21 22 22 23 23 22 22 21 20 19 18 17 17 18 19 18 19 19 20 21 22
8 9 7 5 3 4 4 3 2 6 6 3 4 6 6 5 7 9 11 13 14 12 9 10 7 2 6 6 9 9 9 9 8 9 9 8 8 7 7 8 8 8 7 8 8 8 9 12 13 11 12 14 14 14 15 15 15 15 16 17 18 19 18 19 20 20 20 20 21 21 22 23 23 22 21 20 19 19 19 18 18 17 17 18 19 20
6 12 14 13 7 1 0 4 8 11 8 6 6 5 7 6 7 7 9 9 11 12 9 10 13 7 3 3 7 9 7 8 7 8 8 8 9 8 8 9 10 9 8 8 9 10 10 12 13 11 11 13 14 14 14 15 14 14 15 15 16 16 16 17 18 18 18 19 19 20 21 23 23 22 22 21 21 20 19 18 18 17 17 16 17 18
6 10 12 9 6 2 2 4 9 10 11 9 5 5 5 7 7 6 8 9 10 12 10 11 16 11 3 3 7 7 6 7 7 9 9 9 10 9 9 11 11 10 8 8 8 9 10 12 13 10 10 12 14 13 14 14 13 13 14 14 15 15 14 14 15 16 17 17 17 18 20 21 22 23 23 22 21 21 20 19 18 17 17 16 16 16
6 7 9 7 6 6 4 5 8 5 6 8 5 4 6 7 7 8 8 8 10 12 12 12 13 6 5 6 7 8 7 7 8 9 9 10 10 10 10 11 11 9 8 8 8 9 10 12 13 11 10 13 14 14 14 15 15 14 14 14 14 15 15 14 14 15 15 16 17 19 20 20 21 22 22 22 22 22 21 20 19 17 17 16 16 16
6 6 9 11 11 10 7 6 11 11 8 8 7 7 8 6 7 8 9 9 9 10 11 11 11 3 6 6 7 8 7 6 8 8 8 9 10 11 11 11 11 11 10 10 9 9 11 12 13 12 11 13 14 15 16 17 17 16 16 16 15 15 15 16 16 16 15 16 17 19 20 20 21 21 21 22 22 22 21 20 19 18 18 17 17 17
6 6 9 11 10 9 11 13 13 10 9 9 9 9 9 8 8 9 10 8 5 7 8 10 12 5 5 5 6 8 6 6 7 8 8 10 11 12 12 13 13 12 12 12 11 10 11 12 14 14 13 13 15 16 17 18 18 17 18 18 18 17 17 17 17 16 16 15 16 18 19 20 20 20 21 21 21 21 21 21 20 20 20 20 19 18
3 5 9 10 9 12 18 16 6 3 5 6 8 7 7 8 7 7 11 9 7 10 10 10 13 6 4 5 6 6 5 5 7 8 9 10 11 12 12 13 13 12 13 14 12 12 13 13 14 16 14 14 15 16 17 18 18 18 18 18 19 20 20 19 18 17 17 16 16 18 18 19 20 20 20 20 19 19 20 21 22 22 22 21 21 20
1 4 8 9 10 12 16 8 4 5 4 5 7 7 6 6 7 7 9 9 8 11 11 11 12 4 3 3 4 5 6 7 7 9 11 12 12 13 14 13 12 13 14 14 14 14 15 15 15 16 14 13 15 18 19 19 18 19 19 19 19 20 22 22 21 20 20 20 19 18 17 19 20 19 19 20 20 20 21 21 22 22 22 22 22 21
3 6 8 10 10 10 11 7 2 4 6 8 12 11 8 8 9 8 8 8 9 12 12 12 10 3 3 1 3 7 9 10 11 12 13 13 13 14 15 14 14 14 15 16 16 15 15 15 16 18 17 16 18 22 23 22 20 19 20 20 21 21 22 23 23 23 23 24 23 20 19 20 19 19 20 21 22 21 21 21 21 21 21 21 22 21
5 7 8 9 11 12 12 11 11 13 11 10 14 12 9 11 10 7 8 9 9 10 11 10 7 5 2 2 7 10 12 14 14 14 14 14 14 15 15 15 15 15 16 18 18 16 15 16 18 20 19 19 22 24 25 24 23 22 20 21 21 21 23 24 24 24 24 23 24 23 22 22 21 20 21 23 23 22 21 21 21 21 21 21 21 21
5 7 10 11 13 15 16 16 19 18 15 14 15 12 10 10 9 7 7 8 8 8 8 7 9 11 10 8 10 12 14 16 16 17 17 17 16 17 17 18 18 17 18 19 17 17 17 17 18 20 21 22 24 24 24 24 25 24 23 22 22 21 23 25 24 24 23 22 23 22 22 23 24 22 22 23 24 23 21 21 20 20 21 21 21 21
5 8 12 15 16 17 19 22 23 20 19 19 15 12 11 11 10 8 7 9 10 7 7 11 15 16 14 11 12 14 15 17 18 18 19 19 19 20 20 20 21 21 20 20 18 18 18 16 17 20 22 23 24 23 23 23 23 24 24 24 24 24 25 25 25 25 23 21 21 21 22 23 23 23 22 23 24 23 22 21 20 20 21 21 22 22
6 8 9 10 15 19 20 22 22 20 20 16 11 11 12 11 10 9 8 9 11 7 9 14 18 18 15 11 12 16 16 17 19 19 20 20 21 21 21 21 22 22 22 21 19 18 17 16 17 21 24 25 25 24 23 23 23 23 23 24 24 25 26 26 26 26 24 22 22 22 22 22 23 25 24 21 21 21 21 21 22 22 21 21 21 22
3 7 10 11 15 20 20 21 21 22 19 11 11 11 12 11 10 10 8 10 12 11 13 17 20 19 13 11 14 17 17 18 19 19 21 23 23 22 22 22 22 22 21 19 18 18 17 16 19 23 26 26 26 24 23 23 24 24 24 25 26 26 26 26 26 26 25 24 23 22 23 25 27 26 23 19 19 20 21 23 24 23 22 22 22 22
4 8 13 13 14 16 18 19 21 22 13 8 10 12 12 11 11 9 9 11 12 14 16 18 19 16 9 11 15 17 18 18 20 22 23 22 22 23 23 23 23 22 20 19 18 18 17 17 21 24 25 26 27 26 24 24 24 24 24 26 26 26 26 26 26 25 25 24 24 24 27 28 26 23 21 20 19 19 21 23 24 23 23 23 22 22
5 8 11 11 11 12 16 19 21 22 11 6 10 14 13 11 10 9 9 11 12 15 18 17 15 12 9 12 16 17 19 21 22 23 23 21 21 23 24 23 23 21 20 19 19 19 19 19 21 24 25 26 27 26 25 25 25 24 24 26 26 26 26 26 27 26 23 22 23 25 27 26 23 22 23 21 19 19 21 23 24 23 23 23 23 22
4 6 9 10 9 11 17 20 19 19 13 1 6 10 11 10 12 11 12 13 14 14 13 13 12 10 11 14 17 20 22 22 22 21 21 21 22 23 23 22 21 20 20 20 20 20 21 21 24 27 27 25 24 23 24 25 25 24 25 26 26 25 25 26 27 25 22 21 23 24 24 23 23 24 22 20 19 19 20 22 23 23 22 23 23 22
6 8 9 9 8 11 17 19 16 14 9 1 4 6 9 10 11 13 14 14 14 12 12 14 12 12 14 17 19 22 22 22 22 21 21 21 20 20 21 20 19 20 20 20 20 20 22 26 29 29 27 22 20 20 23 24 24 24 26 27 25 24 25 28 28 25 23 23 24 24 23 22 22 22 20 19 19 19 19 21 22 22 22 22 22 22
9 10 9 8 7 10 13 14 13 11 3 4 3 6 9 9 12 15 15 13 16 18 17 14 12 14 18 20 20 22 22 23 23 23 23 22 19 19 20 20 20 20 20 20 21 22 25 28 28 26 23 20 19 21 23 24 24 25 26 24 23 25 28 30 29 27 26 25 23 22 22 21 20 19 17 18 19 18 18 20 21 22 21 21 21 21
8 9 7 7 7 9 9 9 11 9 1 6 1 7 9 10 14 16 15 15 18 19 15 12 14 18 21 22 21 20 21 23 22 19 20 20 20 20 20 19 20 20 19 20 21 22 25 26 24 24 24 23 24 25 25 26 26 26 24 21 22 26 29 29 29 28 27 25 22 21 21 20 19 17 16 17 18 18 19 20 20 21 20 21 21 21
8 8 7 7 7 7 9 9 10 10 3 3 3 7 8 10 14 14 15 15 11 7 9 14 18 21 21 21 21 20 21 21 18 15 18 20 21 22 22 21 21 22 22 21 21 22 24 25 25 27 28 28 29 29 28 27 26 24 24 24 24 26 27 28 30 29 25 22 20 20 21 19 18 16 16 16 17 19 20 20 20 20 19 20 21 20
8 8 7 7 7 7 9 9 8 10 8 2 5 9 10 13 16 15 16 13 3 5 15 20 20 22 22 21 22 22 20 17 14 14 16 20 22 23 23 23 24 25 24 22 22 24 26 27 28 30 29 28 28 28 26 25 24 24 26 27 26 26 27 29 28 25 20 18 19 20 21 19 17 16 16 17 18 19 20 20 20 19 19 19 20 21
10 8 6 7 8 7 8 8 7 9 6 2 4 12 15 16 18 16 14 10 6 14 21 21 21 23 22 22 23 20 16 13 13 13 15 20 23 22 19 20 24 25 25 25 27 28 29 30 29 26 25 25 26 26 25 25 26 26 26 26 27 27 28 27 22 17 16 18 21 22 21 18 16 15 16 18 19 19 20 20 20 19 19 19 19 20
10 7 6 7 7 7 9 8 7 8 5 1 6 15 18 18 17 13 11 9 13 20 21 19 22 23 21 21 20 15 13 14 14 16 20 24 25 22 20 21 23 25 27 29 31 30 29 28 24 21 23 25 25 27 27 27 27 26 26 27 27 26 24 21 17 17 20 23 23 21 19 17 16 16 18 19 19 19 20 19 19 18 19 19 19 18
8 6 5 7 8 9 10 9 8 8 4 2 10 18 19 16 13 10 10 12 17 22 21 20 22 22 20 19 16 12 13 16 18 22 25 26 23 21 22 24 26 29 30 29 28 28 28 26 24 24 25 25 26 27 27 26 26 27 28 26 24 22 21 20 20 20 22 23 21 20 19 19 19 18 19 19 19 19 19 18 18 18 19 19 18 17
6 5 5 6 7 8 8 8 10 8 1 4 16 20 15 11 9 9 12 16 18 21 21 21 21 20 19 18 16 15 17 22 25 25 25 24 22 21 23 26 28 30 31 30 27 28 29 29 28 28 27 26 27 27 26 26 27 27 26 23 22 22 22 22 21 20 20 20 19 19 20 20 19 19 19 18 18 18 19 18 18 18 18 18 17 17
4 5 6 5 5 7 9 8 8 7 5 12 19 16 9 9 11 12 15 17 18 19 20 19 18 18 18 19 19 20 23 25 26 25 24 23 22 22 24 26 26 28 30 30 28 30 33 30 26 26 27 27 27 25 25 27 27 25 23 22 23 24 23 22 20 18 18 18 18 19 20 20 20 19 18 18 17 17 18 18 17 17 17 17 16 15
2 2 5 4 3 5 7 6 7 9 12 15 15 12 11 13 14 14 15 16 16 17 16 15 16 18 19 20 22 24 24 24 24 24 24 22 21 22 25 27 28 28 27 27 30 33 32 27 24 26 28 28 26 26 26 25 24 24 23 23 23 24 22 19 17 17 18 18 18 19 19 19 19 18 18 17 17 16 17 17 16 16 15 15 14 13
1 2 4 5 5 5 7 9 11 13 14 15 13 14 17 19 17 16 17 15 15 15 13 14 16 19 21 22 23 22 21 22 24 24 22 21 20 22 25 29 31 29 25 27 31 30 26 24 26 29 30 28 26 26 24 22 22 23 24 24 23 22 19 17 18 19 19 19 18 18 18 18 18 17 16 16 15 15 16 15 15 14 13 13 12 11
2 4 4 6 8 9 9 11 13 15 16 18 17 16 18 18 16 17 17 16 15 15 14 15 17 20 21 21 20 19 20 22 23 21 20 19 20 23 29 31 30 27 27 28 27 24 24 26 29 29 28 27 26 24 22 21 21 22 23 23 21 18 18 20 20 20 19 19 19 18 18 17 16 15 14 13 13 13 14 13 13 13 13 12 12 11
1 3 6 7 9 10 10 11 14 18 19 20 19 17 17 17 16 16 16 16 16 17 17 17 19 21 21 20 20 20 22 21 20 19 19 18 20 24 28 28 26 26 26 25 24 26 28 29 27 25 26 26 25 22 21 21 21 21 21 21 19 18 19 20 19 19 19 20 20 18 17 16 15 14 14 13 12 12 12 12 12 12 12 12 11 10
2 4 7 9 10 11 13 16 19 20 19 17 16 14 14 16 18 18 18 18 19 20 20 21 22 21 20 21 22 22 21 18 18 20 20 19 19 22 24 24 24 25 23 23 26 29 29 26 24 24 25 25 23 22 21 21 21 20 20 19 18 19 19 18 18 19 20 20 19 17 16 15 15 15 14 13 12 12 12 11 11 11 11 11 10 9
4 7 8 10 12 12 13 16 19 19 16 14 14 16 16 17 19 20 19 19 20 19 20 24 26 24 21 22 23 20 18 18 20 23 21 18 18 21 24 24 24 24 24 26 29 28 25 23 24 25 24 24 22 22 21 20 19 19 18 17 17 17 17 17 18 18 19 18 17 16 15 16 16 15 14 14 13 13 12 12 12 12 12 11 9 9
5 8 9 10 12 11 12 15 17 16 14 13 17 20 21 20 20 19 19 19 19 19 20 24 26 25 24 24 22 18 16 19 24 25 22 19 20 23 25 24 24 26 28 29 28 26 24 24 24 24 24 23 22 21 20 18 18 19 18 17 16 16 16 18 17 17 17 16 16 15 16 16 16 15 14 14 14 14 14 13 13 13 13 13 12 11
5 6 7 9 11 12 15 17 16 14 14 16 19 21 21 21 19 18 19 20 19 21 25 24 21 21 21 22 22 21 20 23 26 26 22 20 22 24 24 26 27 29 29 28 25 24 25 25 24 24 23 23 22 21 18 16 17 17 18 18 17 16 17 17 16 15 15 16 16 16 16 16 15 15 14 14 13 13 14 14 13 12 12 12 12 12
Wind_Direction
314 273 253 254 270 286 299 291 285 291 297 294 289 284 280 281 280 283 287 117 102 296 276 271 274 278 286 77 73 64 71 69 67 66 59 54 49 44 41 37 34 32 26 19 17 16 16 15 14 14 13 14 15 15 12 10 7 359 353 350 321 248 224 219 217 218 216 211 211 212 210 210 210 211 212 211 213 213 215 217 216 215 213 209 208 209
230 259 259 266 292 319 325 314 304 293 289 285 279 277 276 275 279 285 292 96 109 253 276 278 273 273 204 97 82 77 73 66 65 64 62 57 53 48 41 38 35 32 26 21 21 19 19 19 18 18 18 18 18 17 16 15 11 8 6 6 2 347 275 229 220 219 219 216 214 215 216 215 213 213 212 213 215 215 216 216 214 213 210 206 206 207
237 250 273 346 359 344 312 298 295 285 278 274 272 273 275 279 286 289 346 109 164 219 279 284 275 272 121 106 90 87 83 75 71 65 64 58 55 51 41 38 32 29 26 22 22 19 19 20 19 20 19 19 19 17 18 17 14 12 9 8 6 4 357 299 234 224 222 221 218 218 219 218 217 219 218 218 218 217 217 216 215 213 210 210 210 208
275 288 39 18 355 320 300 292 284 282 272 261 262 267 275 294 301 296 200 181 237 239 264 281 281 263 137 114 97 93 96 94 86 76 71 60 57 54 45 41 32 30 26 20 21 19 18 19 19 20 19 18 19 18 18 16 15 13 10 12 12 8 6 4 340 258 236 229 224 220 220 217 216 221 222 224 225 223 221 220 220 218 215 215 214 211
279 337 24 331 316 307 299 295 283 281 283 271 264 266 277 296 302 297 297 296 288 262 242 253 277 245 166 147 125 115 114 105 97 87 77 65 61 55 48 46 38 34 29 22 21 17 17 19 18 19 18 18 19 18 17 16 16 14 9 12 16 16 12 9 9 357 303 250 229 221 220 219 217 215 214 216 217 219 222 223 223 223 222 219 216 216
282 336 348 311 307 299 292 291 288 288 296 290 286 296 297 302 300 295 300 304 302 284 206 202 279 267 167 169 151 140 133 113 101 90 81 69 64 56 49 46 39 37 32 26 23 18 17 17 16 17 17 18 18 16 15 15 15 15 13 11 13 17 18 16 13 8 359 334 260 226 220 217 216 214 211 214 216 217 221 223 223 225 225 222 219 218
288 316 287 301 307 293 279 274 277 321 301 297 340 0 330 301 294 291 299 297 285 297 232 187 266 289 201 182 159 149 136 119 107 91 84 73 63 58 50 43 38 35 32 28 24 20 18 17 15 16 15 16 15 14 13 14 15 15 15 14 12 14 16 17 17 14 11 6 354 322 253 230 223 220 219 222 225 222 221 223 222 223 225 223 221 219
223 268 232 269 297 294 289 285 36 356 298 300 31 349 316 295 288 288 292 281 269 289 277 227 230 261 257 187 150 146 135 121 112 94 84 74 63 59 53 45 38 33 30 28 23 20 20 18 16 15 14 13 12 12 12 13 14 15 15 15 15 15 14 13 15 18 19 16 9 2 348 312 272 256 250 241 234 229 226 228 225 224 226 226 224 221
192 269 280 325 306 300 319 3 19 310 278 321 23 326 298 286 280 279 277 270 273 283 280 257 217 235 260 160 142 149 141 124 111 95 81 70 63 58 54 45 38 34 29 26 23 20 19 18 17 15 12 11 11 11 11 11 11 13 14 14 15 15 14 11 11 13 16 18 17 13 6 355 339 319 303 285 258 242 234 232 226 222 225 226 226 224
239 351 24 347 301 304 343 0 345 273 260 333 345 300 281 268 259 261 258 262 272 260 266 266 230 232 260 155 156 175 154 130 115 98 80 71 65 57 53 44 36 32 27 22 20 19 17 15 14 12 10 10 11 11 11 10 10 11 11 12 13 13 12 10 9 9 9 11 13 14 12 5 355 343 328 318 299 274 249 238 231 225 225 226 227 228
234 81 65 304 300 319 339 316 248 244 274 324 317 287 283 269 249 242 242 252 267 250 257 263 246 241 253 148 140 169 115 104 112 104 84 75 67 57 51 43 35 30 24 20 17 17 15 12 10 10 10 9 10 11 12 10 9 9 9 8 9 9 9 8 7 7 5 5 7 7 8 6 0 353 343 331 313 301 287 264 247 237 235 231 230 229
224 158 144 80 355 322 300 283 222 206 265 300 288 284 295 289 265 240 236 222 240 258 264 269 253 242 247 191 93 95 85 78 87 93 83 76 70 62 53 43 35 28 22 18 15 15 13 10 8 9 9 9 10 11 11 10 9 8 8 7 5 4 4 4 4 5 3 1 2 1 1 360 358 355 351 343 327 311 299 289 274 253 243 238 234 232
280 179 105 98 35 258 273 306 298 182 206 245 278 292 300 304 297 271 263 243 254 276 291 79 343 256 249 93 106 111 98 85 79 78 79 76 72 65 53 41 32 24 18 15 10 8 7 7 5 4 6 7 9 9 9 9 9 7 6 5 4 2 0 359 360 1 360 358 357 356 356 355 352 351 348 343 336 326 312 297 285 271 257 248 242 237
335 100 127 158 148 180 273 327 323 302 291 287 298 310 301 301 300 287 283 278 276 283 290 78 66 254 211 103 115 112 97 91 83 77 73 70 67 58 44 31 23 16 11 8 3 0 3 4 0 0 3 3 3 4 6 6 6 4 3 3 1 358 358 357 357 356 355 354 352 351 352 352 350 348 344 340 335 330 325 314 297 281 268 259 250 244
324 325 95 348 50 154 254 317 308 303 300 287 291 304 287 282 283 281 285 287 288 290 288 287 281 261 249 114 111 105 97 92 83 76 69 62 57 46 34 23 14 8 1 356 353 352 359 2 360 360 1 2 1 1 2 2 3 2 360 359 357 354 354 355 355 354 352 349 347 346 348 349 348 344 340 338 334 331 326 320 309 295 280 268 259 250
313 308 30 50 148 205 277 313 291 289 290 282 287 280 272 278 281 276 278 282 283 287 284 270 264 25 75 111 112 108 102 92 78 66 58 49 41 31 23 14 5 360 352 349 347 344 352 357 358 0 1 1 0 0 1 358 357 358 357 355 353 350 351 352 352 351 348 344 342 342 345 346 345 342 339 335 331 329 325 319 312 303 293 282 272 262
315 299 309 313 236 214 284 304 213 250 281 312 284 282 304 304 280 277 279 278 276 274 273 269 266 116 119 136 129 122 105 88 72 55 46 37 29 20 14 5 353 348 346 344 346 343 343 348 351 356 358 358 358 357 358 356 354 353 351 350 349 347 348 350 349 346 343 341 339 339 342 343 342 339 336 332 329 326 324 321 316 309 302 293 284 275
325 296 302 312 303 270 215 269 250 238 244 273 280 315 336 287 250 261 275 277 278 275 270 276 276 261 199 162 139 133 106 80 61 40 30 22 21 15 6 354 343 343 341 337 343 341 336 339 346 352 352 353 354 352 353 353 351 349 347 346 345 343 344 345 344 342 339 338 337 337 339 340 340 337 332 328 326 325 323 320 317 314 310 302 292 282
329 298 302 319 324 320 181 247 268 236 215 237 288 343 317 275 265 270 275 280 284 281 279 280 279 285 337 88 132 126 91 68 41 23 18 12 11 4 354 349 344 342 338 336 340 341 335 333 338 344 344 346 349 348 348 347 344 343 342 342 341 338 337 336 337 339 337 337 337 336 336 335 334 333 330 326 324 323 320 318 316 314 311 308 301 291
318 292 295 312 322 310 262 256 299 298 222 235 278 296 259 260 274 271 276 287 284 282 285 282 278 292 47 75 104 93 70 49 24 15 15 8 1 355 350 349 348 343 338 336 335 338 335 330 333 339 336 339 343 342 342 340 338 337 337 336 336 335 333 332 333 335 337 338 338 335 333 332 331 328 327 325 323 320 317 316 314 312 312 311 307 301
303 280 285 300 307 303 296 301 312 316 303 284 288 285 269 263 271 274 279 281 281 282 286 288 284 297 74 74 85 81 61 36 23 12 7 1 355 354 352 350 348 344 339 335 331 334 332 327 330 333 328 331 336 337 339 338 335 335 335 334 333 331 331 331 331 332 332 335 336 335 333 330 328 327 325 323 321 318 316 315 314 313 312 311 307 302
315 293 285 296 302 295 294 304 306 304 307 303 294 291 290 292 294 291 287 288 303 300 298 298 294 308 76 78 72 68 48 26 14 2 358 354 350 350 350 349 348 345 341 336 330 327 328 326 326 327 324 326 330 333 336 335 333 332 332 332 331 329 328 327 327 327 326 327 329 331 331 330 328 326 323 321 318 316 315 314 314 313 311 308 306 302
328 283 278 281 286 288 291 298 324 10 333 297 284 306 325 322 329 314 300 311 321 306 306 300 291 304 63 75 67 56 30 13 2 353 349 344 345 346 345 345 344 342 341 337 331 324 323 324 322 323 323 321 323 327 330 329 327 325 323 324 325 324 324 324 323 322 321 320 322 324 327 328 326 323 322 320 316 313 313 313 312 311 309 305 304 301
45 275 287 286 283 288 290 293 95 77 342 295 296 340 21 5 355 330 301 307 304 295 300 293 287 309 70 82 68 47 14 1 351 346 342 336 338 340 340 341 340 340 340 335 331 324 319 319 319 320 321 318 317 321 324 324 322 319 318 318 319 318 319 319 318 319 318 317 317 317 319 324 324 322 321 320 317 313 310 309 309 308 306 303 301 299
324 298 308 308 301 301 301 307 351 332 325 321 318 339 29 23 354 324 298 296 287 293 302 291 291 350 96 122 15 11 5 355 343 341 340 336 335 336 336 337 337 338 336 332 329 322 315 316 318 319 319 316 315 318 320 320 318 317 316 317 319 317 315 314 312 313 314 314 314 314 315 319 321 322 322 320 316 311 307 306 305 304 303 301 299 298
294 297 307 308 306 310 313 317 323 322 321 317 319 336 18 24 4 335 310 299 296 316 321 302 304 346 14 18 2 359 357 348 339 336 334 333 334 332 331 331 332 335 333 330 328 322 316 315 317 319 317 315 315 317 318 318 316 316 315 315 316 316 313 310 307 307 308 309 311 312 314 317 318 320 321 319 314 310 305 302 301 302 301 300 298 295
279 288 296 298 297 302 310 314 318 320 316 318 330 350 13 16 2 339 313 307 322 334 319 319 341 334 331 357 2 351 347 340 336 333 330 331 331 330 330 329 327 328 328 328 325 320 316 313 315 316 313 311 313 315 316 317 316 315 314 314 315 315 314 311 305 302 301 302 305 306 309 313 315 316 316 315 312 308 304 300 297 298 300 301 299 296
292 291 296 298 296 300 307 311 316 318 316 323 342 4 8 6 0 349 335 335 347 334 300 333 344 325 324 352 353 341 341 336 333 331 329 328 327 326 326 325 323 322 323 323 320 317 315 310 310 311 309 309 310 311 313 315 315 314 314 314 315 313 313 311 305 299 295 296 299 300 305 309 311 312 310 308 308 305 302 301 299 298 299 299 298 295
302 294 307 310 302 306 309 311 317 320 319 334 12 23 8 8 9 360 347 347 354 335 308 329 329 314 319 345 341 334 335 331 328 328 326 323 322 321 322 322 320 319 320 319 316 316 315 310 309 310 310 309 308 309 312 313 315 315 314 314 315 312 310 308 304 297 292 292 296 299 304 306 307 309 307 301 300 301 300 302 302 301 299 296 294 294
323 300 327 331 310 308 311 313 320 322 325 1 42 28 15 10 359 353 342 342 347 334 322 325 318 308 318 341 337 331 330 327 326 324 322 321 320 319 319 318 316 316 317 316 316 317 317 314 312 311 310 308 307 307 310 311 313 314 314 316 316 313 308 304 301 297 292 291 295 299 302 304 305 307 304 296 295 299 300 302 303 301 298 296 292 291
339 314 329 330 310 307 312 315 323 324 333 55 55 22 20 10 357 358 345 340 342 331 325 322 312 302 315 337 331 325 325 323 321 320 320 320 319 318 317 314 313 314 314 315 317 317 315 312 311 310 309 309 307 306 306 308 310 312 314 315 315 313 309 303 299 296 290 290 295 298 300 302 302 301 300 297 295 297 299 301 302 300 298 296 294 291
334 321 323 320 307 309 315 320 328 326 327 78 55 15 12 10 3 0 342 335 335 328 322 317 307 300 311 323 320 319 321 319 318 319 318 317 316 315 312 309 310 313 316 317 318 315 312 310 309 309 308 306 302 300 302 306 308 311 313 315 314 313 310 304 299 295 290 291 294 295 297 298 297 297 299 298 295 294 297 300 301 299 297 295 294 294
342 316 315 319 310 306 317 326 332 324 313 3 49 16 9 5 356 344 332 327 328 327 320 309 300 300 310 317 318 319 321 319 317 318 316 316 315 311 308 310 313 317 318 316 315 313 311 311 310 308 305 301 300 301 305 308 308 310 313 313 313 313 311 307 301 295 292 290 290 290 291 292 292 295 297 296 294 295 296 298 298 296 296 295 295 295
330 316 316 326 315 306 320 330 330 323 319 1 75 32 9 356 346 332 320 316 316 315 307 300 298 305 314 319 320 320 320 318 316 316 314 314 313 310 314 320 321 320 316 314 314 315 314 313 313 312 310 310 312 312 311 309 308 309 311 310 309 311 313 308 299 290 287 286 285 286 287 287 289 292 293 295 296 296 295 295 294 293 294 294 295 294
326 327 325 328 316 309 324 333 327 325 345 137 117 26 359 341 337 328 315 310 313 313 312 310 310 316 318 319 321 320 317 315 314 312 311 312 317 321 322 322 320 317 315 315 316 318 320 321 322 322 321 321 320 316 311 308 307 308 309 308 309 310 310 304 294 286 284 284 282 284 286 288 289 291 292 295 295 293 293 292 291 291 292 293 293 293
340 336 330 327 320 319 330 334 324 323 49 147 133 356 353 341 341 335 319 314 316 315 318 324 321 322 322 320 320 318 315 315 314 309 308 315 327 329 323 318 318 317 319 323 328 332 334 334 333 329 325 322 318 315 311 308 307 308 307 309 311 309 306 303 296 289 288 288 287 288 289 291 291 290 291 294 293 290 290 289 288 290 291 291 291 291
357 341 334 329 327 331 330 322 314 309 299 124 26 349 348 339 337 331 315 309 309 316 336 337 327 324 323 319 318 318 318 316 311 308 314 321 326 326 320 318 319 320 324 331 336 339 337 333 328 322 317 314 311 309 309 308 308 310 310 310 310 306 304 303 298 291 290 292 293 294 293 292 291 290 290 291 290 289 288 288 288 289 290 291 291 291
359 346 337 327 327 335 325 317 318 312 309 30 20 347 343 334 330 327 312 300 302 10 347 337 326 321 320 319 319 320 320 315 308 311 322 324 323 322 319 319 321 324 328 333 334 332 329 324 318 313 311 313 312 312 315 316 316 315 311 308 309 308 305 301 295 290 291 295 296 296 294 290 288 288 289 288 288 288 288 287 287 288 289 290 290 290
352 345 337 327 326 333 324 315 313 311 311 52 5 343 344 336 330 323 303 293 348 357 340 328 321 318 319 320 320 320 320 313 308 314 323 323 322 321 321 323 326 327 327 327 328 329 327 324 320 320 322 324 321 321 322 321 317 314 310 308 308 307 301 295 290 292 299 301 300 296 292 288 287 288 289 288 286 286 286 286 287 287 288 288 289 290
345 340 336 333 328 326 321 310 298 305 316 22 342 341 342 333 326 316 295 304 340 338 327 321 319 318 318 318 318 320 317 312 311 315 318 319 319 320 323 326 328 326 322 320 321 324 325 324 324 326 325 321 319 319 318 315 312 309 308 307 305 303 302 301 304 308 306 303 299 295 291 291 292 290 290 290 288 286 285 285 286 287 288 289 289 289
335 334 329 330 328 322 317 306 297 305 307 308 332 339 337 327 320 310 303 317 326 321 319 320 317 315 316 318 318 317 312 310 312 313 315 317 318 320 324 325 325 323 319 315 316 321 322 320 316 314 313 314 316 316 313 311 309 308 307 305 303 306 313 316 314 309 305 302 299 296 295 295 294 291 289 288 287 285 285 284 285 287 288 289 289 288
330 334 325 323 328 322 310 300 300 302 311 347 330 331 332 325 318 311 309 313 314 314 316 317 313 314 317 316 313 312 311 312 313 313 314 316 315 318 323 324 323 321 317 311 311 318 320 315 309 309 312 316 316 314 313 311 309 308 306 304 304 308 312 311 307 305 306 305 302 299 297 295 292 291 289 287 284 283 284 284 285 286 287 288 288 287
323 324 320 325 331 318 307 302 300 302 337 342 328 324 332 330 316 309 309 309 311 314 315 313 312 315 315 313 313 313 312 312 313 315 315 315 315 318 321 322 322 321 316 311 310 317 318 313 310 312 315 317 317 317 316 312 309 307 305 304 307 309 307 304 305 308 309 306 301 297 296 294 293 292 290 287 283 282 283 284 285 286 286 287 287 287
226 298 314 322 331 311 300 295 295 300 316 325 321 315 319 317 310 308 309 309 312 315 314 311 310 312 313 314 314 313 312 312 314 317 316 315 316 317 318 320 320 318 315 312 313 317 317 315 315 316 315 315 317 317 316 312 309 307 306 307 309 309 306 308 314 316 311 305 299 296 296 295 294 292 289 287 286 285 285 285 285 287 288 288 286 286
288 314 313 307 294 277 269 275 291 301 307 313 315 313 311 309 308 310 310 310 312 314 312 309 309 312 315 315 314 315 316 315 315 317 318 318 318 319 319 319 318 317 317 316 316 319 322 322 319 315 314 316 318 317 315 312 309 308 308 309 310 311 316 324 324 317 310 305 301 299 296 294 292 289 287 287 285 285 286 288 289 289 290 291 289 287
314 313 311 301 297 295 283 282 295 304 308 312 313 310 309 309 311 314 314 313 313 312 311 310 311 314 317 317 317 318 316 315 316 319 322 323 321 319 318 317 317 320 323 321 321 325 327 322 316 313 314 318 319 317 314 313 311 310 311 313 315 322 330 329 322 315 312 308 305 302 298 295 293 293 292 290 288 287 287 289 291 291 293 294 292 288
290 314 307 297 300 305 296 294 305 310 312 313 311 308 308 310 313 317 317 315 314 312 312 315 317 318 317 318 320 317 313 315 321 324 324 322 318 316 315 316 319 323 324 323 325 327 323 317 315 316 317 317 318 317 316 315 314 313 315 318 324 332 332 327 321 318 315 310 307 305 303 301 301 303 303 299 296 294 292 290 291 291 292 295 295 296
286 314 309 301 302 297 288 296 310 313 310 307 306 307 311 313 316 318 315 313 313 312 315 319 321 319 315 316 318 315 313 320 325 324 321 319 316 316 317 320 323 325 324 325 324 322 319 316 317 319 317 316 317 317 316 317 317 319 322 326 329 331 329 326 323 319 314 311 309 309 309 310 311 311 309 305 303 300 297 295 295 293 291 293 295 296
284 301 304 305 303 295 292 306 318 317 310 307 309 311 314 316 318 317 315 315 314 314 316 318 317 315 314 315 315 314 316 322 323 321 319 317 316 318 320 323 326 325 324 323 321 319 319 319 320 320 317 315 317 317 317 319 322 326 329 327 326 327 326 325 324 320 317 315 315 315 316 317 315 313 310 308 305 302 299 295 293 290 287 286 286 283
292 301 305 307 305 302 305 315 319 314 308 308 312 313 314 316 317 316 316 317 316 317 319 317 315 315 315 315 315 316 319 320 319 319 318 315 316 319 322 325 327 324 321 320 318 318 319 321 321 319 315 315 317 316 316 322 328 331 330 324 321 323 323 324 324 321 321 321 319 318 319 316 313 312 310 309 308 306 305 301 294 287 281 279 281 282
277 287 288 290 291 294 301 307 311 306 299 300 306 310 312 313 313 314 316 316 316 320 322 319 316 317 317 316 318 320 318 317 318 318 316 313 317 322 325 325 323 319 318 318 318 318 321 321 320 318 316 317 317 314 317 325 329 331 332 328 323 319 320 323 322 319 320 322 318 315 315 312 309 310 309 308 309 309 309 308 305 299 290 283 282 285